KA9CBS Weather Reports


time (UTC)temp
C
wind
direction
speed
KPH
gust
KPH
rain 1hr
cm
rain 24hr
cm
rain mn
cm
humidity
%
barometer
mb
20260504130731 17 248 11.3 14.5 0.00 0.00 0.00 75 1011.5
20260504130226 16 279 11.3 12.9 0.00 0.00 0.00 76 1011.3
20260504120151 15 205 4.8 4.8 0.00 0.00 0.00 77 1011.5
20260504110618 15 191 1.6 3.2 0.00 0.00 0.00 76 1011.3
20260504110114 16 193 1.6 3.2 0.00 0.00 0.00 76 1011.1
20260504100540 16 190 0.0 0.0 0.00 0.00 0.00 75 1011.2
20260504081933 14 161 3.2 3.2 0.00 0.00 0.00 80 1011.7
20260504081430 15 187 0.0 0.0 0.00 0.00 0.00 77 1011.5
20260504080926 15 136 0.0 1.6 0.00 0.00 0.00 77 1011.8
20260504080423 15 142 0.0 0.0 0.00 0.00 0.00 77 1011.6
20260504070350 17 280 11.3 24.1 0.00 0.00 0.00 67 1010.7
20260504050738 17 295 11.3 16.1 0.00 0.00 0.00 64 1011.1
20260504050235 17 277 12.9 20.9 0.00 0.00 0.00 64 1011.3
20260504045732 17 294 16.1 22.5 0.00 0.03 0.03 63 1011.0
20260504045227 16 285 11.3 20.9 0.00 0.03 0.03 64 1011.2
20260504044725 16 278 14.5 17.7 0.00 0.03 0.03 63 1011.6
20260504044223 16 307 14.5 17.7 0.00 0.03 0.03 63 1011.6
20260504043720 16 299 12.9 22.5 0.00 0.03 0.03 63 1011.7
20260504043216 16 290 9.7 24.1 0.00 0.03 0.03 62 1011.6
20260504042714 16 328 14.5 17.7 0.00 0.03 0.03 63 1011.6
20260504042210 16 291 9.7 12.9 0.00 0.03 0.03 63 1011.8
20260504041707 16 285 12.9 16.1 0.00 0.03 0.03 63 1011.6
20260504041202 16 293 14.5 17.7 0.00 0.03 0.03 61 1011.6
20260504040659 16 281 17.7 20.9 0.00 0.03 0.03 61 1011.6
20260504040156 16 269 14.5 17.7 0.00 0.03 0.03 61 1011.5
20260504035652 16 277 11.3 17.7 0.00 0.03 0.03 60 1011.8
20260504035150 16 264 12.9 14.5 0.00 0.03 0.03 60 1011.9
20260504034647 16 314 16.1 17.7 0.00 0.03 0.03 60 1011.9
20260504034144 16 319 12.9 17.7 0.00 0.03 0.03 59 1012.0
20260504033642 16 327 14.5 20.9 0.00 0.03 0.03 59 1011.9
20260504033139 16 266 16.1 17.7 0.00 0.03 0.03 58 1012.0
20260504032636 16 272 11.3 22.5 0.00 0.03 0.03 58 1012.0
20260504032133 16 261 8.0 16.1 0.00 0.03 0.03 57 1012.0
20260504031630 16 272 8.0 14.5 0.00 0.03 0.03 57 1012.1
20260504031126 16 280 9.7 12.9 0.00 0.03 0.03 57 1012.2
20260504030623 16 260 9.7 12.9 0.00 0.03 0.03 57 1012.5
20260504030120 16 225 8.0 12.9 0.00 0.03 0.03 57 1012.4
20260504025617 17 285 11.3 17.7 0.00 0.03 0.03 55 1012.3
20260504025113 16 270 12.9 14.5 0.00 0.03 0.03 56 1012.4
20260504024611 17 257 6.4 16.1 0.00 0.03 0.03 56 1012.4
20260504024107 17 260 9.7 17.7 0.00 0.03 0.03 55 1012.5
20260504023604 17 260 8.0 14.5 0.00 0.03 0.03 55 1012.3
20260504023059 17 253 8.0 12.9 0.00 0.03 0.03 55 1012.2
20260504022556 17 292 17.7 17.7 0.00 0.03 0.03 54 1012.3
20260504022052 17 263 11.3 14.5 0.00 0.03 0.03 54 1012.3
20260504021550 17 259 17.7 17.7 0.00 0.03 0.03 53 1012.3
20260504021047 17 254 8.0 11.3 0.00 0.03 0.03 55 1012.5
20260504020544 17 259 8.0 12.9 0.00 0.03 0.03 54 1012.3
20260504020040 17 281 11.3 14.5 0.00 0.03 0.03 53 1012.2
20260504015537 17 272 11.3 12.9 0.00 0.03 0.03 53 1012.3
20260504015032 17 250 8.0 14.5 0.00 0.03 0.03 53 1012.2
20260504014529 17 245 6.4 14.5 0.00 0.03 0.03 53 1012.2
20260504014026 17 266 6.4 11.3 0.00 0.03 0.03 53 1012.2
20260504013524 17 223 8.0 12.9 0.00 0.03 0.03 52 1012.2
20260504013020 17 286 11.3 14.5 0.00 0.03 0.03 52 1012.3
20260504012518 17 266 8.0 16.1 0.00 0.03 0.03 52 1012.2
20260504012016 17 245 9.7 16.1 0.00 0.03 0.03 52 1012.3
20260504011512 17 271 9.7 14.5 0.00 0.03 0.03 51 1012.3
20260504011008 18 238 8.0 14.5 0.00 0.03 0.03 50 1012.7
20260504010504 17 264 8.0 12.9 0.00 0.03 0.03 51 1012.3
20260504010000 18 259 8.0 12.9 0.00 0.03 0.03 51 1012.4
20260504005457 18 274 8.0 14.5 0.00 0.03 0.03 50 1012.5
20260504004954 18 297 9.7 12.9 0.00 0.03 0.03 49 1012.2
20260504004452 18 271 9.7 14.5 0.00 0.03 0.03 49 1012.4
20260504003949 18 280 12.9 16.1 0.00 0.03 0.03 48 1012.7
20260504003445 18 263 8.0 11.3 0.00 0.03 0.03 48 1012.5
20260504002942 18 268 9.7 12.9 0.00 0.03 0.03 48 1012.6
20260504002439 19 291 12.9 16.1 0.00 0.03 0.03 47 1012.6
20260504001936 19 293 16.1 17.7 0.00 0.03 0.03 45 1012.5
20260504001433 19 286 22.5 27.4 0.00 0.03 0.03 45 1012.8
20260504000930 20 307 16.1 22.5 0.00 0.03 0.03 45 1012.7
20260504000427 20 274 17.7 29.0 0.00 0.03 0.03 45 1012.6
20260503235925 20 313 22.5 27.4 0.00 0.03 0.03 45 1012.4
20260503235422 20 296 8.0 16.1 0.00 0.03 0.03 46 1012.4
20260503234920 20 280 19.3 24.1 0.00 0.03 0.03 44 1012.6
20260503234417 20 327 16.1 17.7 0.00 0.03 0.03 45 1012.6
20260503233915 20 283 11.3 29.0 0.00 0.03 0.03 44 1012.7
20260503233411 20 289 11.3 22.5 0.00 0.03 0.03 44 1012.5
20260503232908 20 279 11.3 24.1 0.00 0.03 0.03 45 1012.6
20260503232405 20 304 20.9 35.4 0.00 0.03 0.03 43 1012.5
20260503231903 20 308 19.3 22.5 0.00 0.03 0.03 43 1012.5
20260503231400 20 288 19.3 27.4 0.00 0.03 0.03 43 1012.6
20260503230855 20 315 37.0 40.2 0.00 0.03 0.03 42 1012.4
20260503230352 20 304 24.1 37.0 0.00 0.03 0.03 43 1012.4
20260503225850 20 277 17.7 24.1 0.00 0.03 0.03 44 1012.5
20260503225346 20 301 24.1 37.0 0.00 0.03 0.03 43 1012.6
20260503224842 20 265 17.7 25.7 0.00 0.03 0.03 45 1012.7
20260503224340 20 313 27.4 38.6 0.00 0.03 0.03 44 1012.6
20260503223837 20 261 14.5 25.7 0.00 0.03 0.03 45 1012.6
20260503223334 20 287 24.1 29.0 0.00 0.03 0.03 44 1013.0
20260503222830 20 295 17.7 33.8 0.00 0.03 0.03 44 1013.0
20260503222329 20 264 14.5 25.7 0.00 0.03 0.03 45 1012.7
20260503221827 20 257 12.9 20.9 0.00 0.03 0.03 46 1013.0
20260503221326 20 307 20.9 27.4 0.00 0.03 0.03 44 1012.8
20260503220821 20 292 14.5 27.4 0.00 0.03 0.03 46 1012.9
20260503220318 20 272 24.1 29.0 0.00 0.03 0.03 43 1013.2
20260503215814 20 299 35.4 43.5 0.00 0.03 0.03 43 1012.9
20260503215312 20 250 12.9 25.7 0.00 0.03 0.03 46 1013.1
20260503214810 20 264 11.3 17.7 0.00 0.03 0.03 48 1013.0
20260503214306 20 284 20.9 29.0 0.00 0.03 0.03 46 1013.0
20260503213758 20 275 27.4 38.6 0.00 0.03 0.03 44 1013.2
20260503213255 20 303 22.5 37.0 0.00 0.03 0.03 44 1013.3
20260503212752 20 318 22.5 25.7 0.00 0.03 0.03 44 1013.6
20260503212249 20 299 24.1 32.2 0.00 0.03 0.03 43 1013.7
20260503211741 20 296 22.5 37.0 0.00 0.03 0.03 46 1013.8
20260503211238 20 300 20.9 24.1 0.00 0.03 0.03 45 1013.9
20260503210733 20 283 17.7 32.2 0.00 0.03 0.03 44 1014.1
20260503210230 20 267 25.7 35.4 0.00 0.03 0.03 44 1014.1
20260503205726 19 308 25.7 32.2 0.00 0.03 0.03 43 1014.5
20260503205222 19 272 22.5 37.0 0.00 0.03 0.03 44 1014.3
20260503204719 19 273 30.6 41.8 0.00 0.03 0.03 44 1014.6
20260503204217 20 275 16.1 27.4 0.00 0.03 0.03 49 1014.7
20260503203714 19 273 27.4 38.6 0.00 0.03 0.03 47 1014.8
20260503203211 19 289 29.0 37.0 0.00 0.03 0.03 46 1014.9
20260503202708 20 291 30.6 37.0 0.00 0.03 0.03 45 1015.3
20260503202206 19 307 17.7 24.1 0.00 0.03 0.03 48 1015.4
20260503201704 19 269 20.9 29.0 0.00 0.03 0.03 48 1015.1
20260503201201 19 283 20.9 33.8 0.00 0.03 0.03 47 1015.5
20260503200657 18 299 25.7 35.4 0.00 0.03 0.03 47 1015.8
20260503200153 18 285 17.7 37.0 0.00 0.03 0.03 49 1016.0
20260503195645 18 295 24.1 37.0 0.00 0.03 0.03 48 1016.0
20260503195142 19 267 14.5 25.7 0.00 0.03 0.03 49 1016.3
20260503194639 18 281 17.7 35.4 0.00 0.03 0.03 49 1016.3
20260503194134 19 306 19.3 32.2 0.00 0.03 0.03 49 1016.5
20260503193631 18 307 16.1 32.2 0.00 0.03 0.03 50 1016.6
20260503193126 18 343 12.9 20.9 0.00 0.03 0.03 51 1016.9
20260503192622 18 281 30.6 40.2 0.00 0.03 0.03 47 1017.2
20260503192118 18 312 9.7 29.0 0.00 0.03 0.03 51 1017.2
20260503191610 18 342 17.7 29.0 0.00 0.03 0.03 50 1017.5
20260503191106 18 280 16.1 29.0 0.00 0.03 0.03 48 1017.3
20260503190604 18 300 24.1 38.6 0.00 0.03 0.03 48 1017.3
20260503185557 18 293 20.9 32.2 0.00 0.03 0.03 50 1017.5
20260503185057 18 310 11.3 22.5 0.00 0.03 0.03 52 1017.7
20260503184552 17 256 17.7 25.7 0.00 0.03 0.03 50 1017.9
20260503184049 17 291 25.7 29.0 0.00 0.03 0.03 51 1018.1
20260503183546 18 285 11.3 27.4 0.00 0.03 0.03 51 1018.1
20260503183043 17 329 17.7 22.5 0.00 0.03 0.03 50 1018.4
20260503182541 17 306 20.9 37.0 0.00 0.03 0.03 51 1018.2
20260503182039 17 294 24.1 35.4 0.00 0.03 0.03 52 1018.6
20260503181530 17 256 24.1 32.2 0.00 0.03 0.03 51 1018.6
20260503181026 17 280 20.9 41.8 0.00 0.03 0.03 53 1018.6
20260503180524 17 327 16.1 29.0 0.00 0.03 0.03 52 1018.9
20260503180021 17 315 25.7 32.2 0.00 0.03 0.03 51 1018.9
20260503175518 16 328 17.7 33.8 0.00 0.03 0.03 52 1019.1
20260503175015 17 287 19.3 32.2 0.00 0.03 0.03 52 1019.4
20260503174513 17 264 22.5 29.0 0.00 0.03 0.03 52 1019.2
20260503174009 17 352 20.9 35.4 0.00 0.03 0.03 53 1019.3
20260503173503 17 295 11.3 16.1 0.00 0.03 0.03 56 1019.3
20260503173000 16 256 16.1 33.8 0.00 0.03 0.03 54 1019.3
20260503172458 16 243 14.5 33.8 0.00 0.03 0.03 57 1019.5
20260503171955 16 285 14.5 29.0 0.00 0.03 0.03 54 1019.6
20260503171451 16 276 17.7 22.5 0.00 0.03 0.03 54 1019.6
20260503170949 16 279 35.4 40.2 0.00 0.03 0.03 52 1019.9
20260503170445 16 301 20.9 29.0 0.00 0.03 0.03 54 1019.8
20260503150837 13 297 14.5 24.1 0.00 0.03 0.03 66 1021.2
20260503150333 13 263 12.9 17.7 0.00 0.03 0.03 67 1021.4
20260503140252 11 307 14.5 17.7 0.00 0.03 0.03 76 1021.5